This is the latest recevied weather packets stored in our database for station/object IZ1OSY-3. If no packets are shown the sender has not sent any weather packets the latest 10 day(s).
| Time | Temp. | Humidity | Pressure | Rain* | Wind** | Luminosity | Snow |
|---|---|---|---|---|---|---|---|
| 1777651863 | 13.33° C | 47% | 1025.4 hPa | - | - | - | - |
| 1777650959 | 13.89° C | 44% | 1025.4 hPa | - | - | - | - |
| 1777650662 | 13.89° C | 45% | 1025.4 hPa | - | - | - | - |
| 1777647356 | 14.44° C | 43% | 1025.6 hPa | - | - | - | - |
| 1777647060 | 14.44° C | 41% | 1025.6 hPa | - | - | - | - |
| 1777644955 | 13.89° C | 41% | 1025.8 hPa | - | - | - | - |
| 1777643754 | 15° C | 43% | 1025.9 hPa | - | - | - | - |
| 1777642553 | 14.44° C | 44% | 1026.1 hPa | - | - | - | - |
| 1777642257 | 14.44° C | 44% | 1026.2 hPa | - | - | - | - |
| 1777641352 | 13.89° C | 46% | 1026.4 hPa | - | - | - | - |
| 1777640151 | 13.89° C | 48% | 1026.4 hPa | - | - | - | - |
| 1777639855 | 13.89° C | 48% | 1026.5 hPa | - | - | - | - |
| 1777637750 | 12.22° C | 51% | 1026.7 hPa | - | - | - | - |
| 1777637453 | 12.22° C | 48% | 1026.7 hPa | - | - | - | - |
| 1777636549 | 11.67° C | 50% | 1026.7 hPa | - | - | - | - |
| 1777634147 | 11.67° C | 48% | 1026.8 hPa | - | - | - | - |
| 1777632946 | 11.67° C | 49% | 1026.8 hPa | - | - | - | - |
| 1777631745 | 11.11° C | 51% | 1026.8 hPa | - | - | - | - |
| 1777631449 | 11.11° C | 49% | 1026.9 hPa | - | - | - | - |
| 1777630545 | 10.56° C | 52% | 1026.8 hPa | - | - | - | - |
| 1777630248 | 10.56° C | 52% | 1026.8 hPa | - | - | - | - |
| 1777629344 | 10° C | 53% | 1026.7 hPa | - | - | - | - |
| 1777627846 | 10.56° C | 56% | 1026.6 hPa | - | - | - | - |
| 1777626942 | 10.56° C | 58% | 1026.5 hPa | - | - | - | - |
| 1777626646 | 10.56° C | 56% | 1026.5 hPa | - | - | - | - |
* Rain since midnight (hover to see other rain measurements)
** Current wind speed in m/s (hover to see current wind gust speed)